This is the latest recevied weather packets stored in our database for station/object WC4PEM-11. If no packets are shown the sender has not sent any weather packets the latest 10 day(s).
| Time | Temp. | Humidity | Pressure | Rain* | Wind** | Luminosity | Snow |
|---|---|---|---|---|---|---|---|
| 1787783598 | 30.56° C | 72% | 1015.3 hPa | 0 mm | - | - | - |
| 1787783298 | 30.56° C | 70% | 1014.8 hPa | 0 mm | - | - | - |
| 1787782998 | 30.56° C | 69% | 1014.7 hPa | 0 mm | - | - | - |
| 1787782698 | 31.11° C | 67% | 1014.8 hPa | 0 mm | - | - | - |
| 1787782398 | 31.67° C | 66% | 1014.6 hPa | 0 mm | - | - | - |
| 1787782098 | 32.22° C | 64% | 1014.5 hPa | 0 mm | - | - | - |
| 1787781798 | 32.22° C | 64% | 1014.5 hPa | 0 mm | - | - | - |
| 1787781498 | 32.22° C | 64% | 1014.6 hPa | 0 mm | - | - | - |
| 1787781198 | 32.22° C | 64% | 1014.6 hPa | 0 mm | - | - | - |
| 1787780898 | 32.22° C | 64% | 1014.4 hPa | 0 mm | - | - | - |
| 1787780598 | 32.22° C | 64% | 1014.4 hPa | 0 mm | - | - | - |
| 1787780298 | 31.67° C | 64% | 1014.6 hPa | 0 mm | - | - | - |
| 1787779998 | 31.67° C | 66% | 1014.6 hPa | 0 mm | - | - | - |
| 1787779698 | 31.11° C | 68% | 1014.6 hPa | 0 mm | - | - | - |
| 1787779398 | 30.56° C | 72% | 1014.4 hPa | 0 mm | - | - | - |
| 1787779098 | 30.56° C | 71% | 1014.6 hPa | 0 mm | - | - | - |
| 1787778798 | 30.56° C | 72% | 1014.6 hPa | 0 mm | - | - | - |
| 1787778713 | 30.56° C | 73% | 1014.7 hPa | 0 mm | - | - | - |
| 1787778498 | 30.56° C | 73% | 1014.7 hPa | 0 mm | - | - | - |
| 1787778198 | 30° C | 74% | 1014.7 hPa | 0 mm | - | - | - |
| 1787777898 | 30° C | 76% | 1014.8 hPa | 0 mm | - | - | - |
| 1787777598 | 30° C | 75% | 1015 hPa | 0 mm | - | - | - |
| 1787777298 | 29.44° C | 76% | 1014.8 hPa | 0 mm | - | - | - |
| 1787776998 | 28.89° C | 86% | 1014.9 hPa | 0 mm | - | - | - |
| 1787776698 | 28.33° C | 82% | 1015.1 hPa | 0 mm | - | - | - |
* Rain latest hour (hover to see other rain measurements)
** Current wind speed in m/s (hover to see current wind gust speed)